DELTA 1 DEB, 10654

Orbit data source: Space-Track

DELTA 1 DEB, 10654 is space debris in SSO originally from a launch on Thu, 29 Jul 1976 UTC launched from the Air Force Western Test Range (AFWTR). Debris objects in space refer to the collection of defunct objects orbiting the Earth. Examples of debris include non-operational satellites, rocket bodies, and fragments generated from explosions, collisions, or faulty payload assembly.

Loading next visibility...
Identifier
10654, 1976-077Q
Orbit
SSO
Country
Flag of USUS
Related business
Manufacturer
Unknown
Mission
Spacecraft
Bus & Motor
Unknown
Mass
Unknown
Launch date (UTC)
1976-07-29 (49 years ago)
Launch vehicle
Unknown
Launch site
Air Force Western Test Range (AFWTR)
Object type
Payload
Rocket body
Debris
Shape & HBR
Unknown shape, 0.2 m
Radar Cross Section
Small (<0.1 m²)

Expand to show TLE details & history
Last TLE update: 1 day ago

TLE from 1 day ago
0 DELTA 1 DEB
1 10654U 76077Q   26022.58854032  .00000600  00000-0  21492-2 0  9996
2 10654 102.4878 318.0725 0186666 157.2588  16.1217 12.95221646324109
Epoch: 2026-01-22T14:07Z
TLE epoch observation values (Epoch: 2026-01-22T14:07:29.883Z)
Latitude
5.79543°
Longitude
165.53988°
Altitude
1,145.754 km
Speed
7.345 km/s
True Right ascension
09h 17m 24s
True Declination
5° 45' 46"
Sunlit
Object was in full shadow at epoch
Visualization orbit readout
Latitude
Unknown
Longitude
Unknown
Altitude
Unknown
Speed
Unknown
Apparent Right ascension
Unknown
Apparent Declination
Unknown
Sunlit
N/A
Visualization observer readout
Local Sidereal Time
21:37:58
Azimuth
Unknown
Elevation
Unknown
Doppler factor
Unknown
Orbital elements
Apogee altitude
1,421.323 km
Perigee altitude
1,135.48 km
Semi-major axis
7,656.539 km
Eccentricity
0.01867
Inclination
102.4878°
RAAN
318.0725°
Arg. of periapsis
157.2588°
True anomaly
16.72926°
Mean anomaly
16.1217°
Eccentric anomaly
16.4241°
Mean motion
3.23962 °/min
Orbital period
111.12 mins
BSTAR
0.0021492
Loading maneuver chart data...
Computing Atmospheric mass density...
Loading historical data...
Loading historical data...
Loading historical data...
Loading historical data...
Loading historical data...
Loading historical data...
Loading historical data...

Documentation

Showing up to 5 results
|